Location: Little Elm
(33.1626°N, 96.9375°W)
Time: 11:58:48
(UTC+00:00)

Envisat - Pass Details

Date: 26 May 2022
Orbit: 764 x 765 km, 98.2° (Epoch: 01 July)

Event Time Altitude Azimuth Distance (km) Brightness Sun altitude
Rises 09:53:00 0° 33° (NNE) 3,233 7.7 -16.4°
Reaches altitude 10° 09:56:06 10° 53° (NE) 2,302 6.9 -15.9°
Maximum altitude 09:59:24 17° 94° (E) 1,842 5.6 -15.4°
Drops below altitude 10° 10:02:41 10° 135° (SE) 2,292 5.6 -14.8°
Sets 10:05:45 0° 154° (SSE) 3,212 6.1 -14.3°
